Location: ??????????
(44.2167°N, 135.5333°E)
Time: 13:57:43
(UTC+00:00)

Cosmos 1627 Rocket - Pass Details

Date: 15 June 2025
Orbit: 948 x 1004 km, 82.9° (Epoch: 15 July)

Event Time Altitude Azimuth Distance (km) Brightness Sun altitude
Exits shadow 16:51:31 26° 187° (S) 1,863 5.4 -17.7°
Maximum altitude 16:55:24 89° 274° (W) 997 4.5 -17.3°
Drops below altitude 10° 17:01:43 10° 8° (N) 2,744 7.9 -16.8°
Sets 17:04:14 0° 9° (N) 3,687 8.8 -16.6°
